EW2825 Weather Reports


time (UTC)temp
F
wind
direction
speed
knots
gust
knots
rain 1hr
in
rain 24hr
in
rain mn
in
humidity
%
barometer
mb
20260505173038 78 262 4.3 0.0 0.00 0.00 0.00 39 999.9
20260505171527 78 300 2.6 0.0 0.00 0.00 0.00 40 1000.3
20260505170027 76 329 2.6 0.0 0.00 0.00 0.00 45 1000.4
20260505164522 75 136 2.6 0.0 0.00 0.00 0.00 47 1000.7
20260505163021 75 347 3.5 0.0 0.00 0.00 0.00 46 1001.2
20260505161525 74 308 1.7 0.0 0.00 0.00 0.00 46 1001.5
20260505153011 72 26 3.5 0.0 0.00 0.00 0.00 48 1002.4
20260505151510 72 306 4.3 0.0 0.00 0.00 0.00 50 1002.1
20260505140112 68 317 2.6 0.0 0.00 0.00 0.00 54 1002.6
20260505124538 50 172 0.9 0.0 0.00 0.00 0.00 85 1003.9
20260505123033 48 168 0.0 0.0 0.00 0.00 0.00 90 1003.9
20260505121532 46 168 0.0 0.0 0.00 0.00 0.00 93 1004.3
20260505120038 45 168 0.0 0.0 0.00 0.00 0.00 94 1004.2
20260505114531 44 169 0.0 0.0 0.00 0.00 0.00 95 1003.9
20260505113033 44 169 0.0 0.0 0.00 0.00 0.00 97 1004.2
20260505111529 43 169 0.0 0.0 0.00 0.00 0.00 97 1004.3
20260505101528 41 169 0.0 0.0 0.00 0.00 0.00 95 1004.2
20260505100027 42 169 0.0 0.0 0.00 0.00 0.00 96 1004.2
20260505094530 41 169 0.0 0.0 0.00 0.00 0.00 96 1004.2
20260505093027 41 169 0.0 0.0 0.00 0.00 0.00 96 1004.2
20260505091526 40 169 0.0 0.0 0.00 0.00 0.00 95 1004.2
20260505090025 41 169 0.0 0.0 0.00 0.00 0.00 95 1004.2
20260505084534 41 169 0.0 0.0 0.00 0.00 0.00 95 1004.2
20260505083022 41 168 0.0 0.0 0.00 0.00 0.00 94 1004.5
20260505081522 41 294 0.0 0.0 0.00 0.00 0.00 94 1004.4
20260505080021 41 294 0.0 0.0 0.00 0.00 0.00 94 1004.7
20260505074519 41 294 0.0 0.0 0.00 0.00 0.00 93 1004.7
20260505073029 42 294 0.0 0.0 0.00 0.00 0.00 93 1004.7
20260505071517 41 294 0.0 0.0 0.00 0.00 0.00 93 1004.4
20260505070026 42 294 0.0 0.0 0.00 0.00 0.00 92 1004.6
20260505064513 42 294 0.0 0.0 0.00 0.00 0.00 92 1004.6
20260505063012 43 223 0.0 0.0 0.00 0.00 0.00 91 1004.7
20260505061510 43 223 0.9 0.0 0.00 0.00 0.00 91 1004.8
20260505060006 44 221 0.0 0.0 0.00 0.00 0.00 89 1004.8
20260505054506 44 221 0.0 0.0 0.00 0.00 0.00 89 1004.7
20260505053004 44 221 0.9 0.0 0.00 0.00 0.00 89 1004.4
20260505051502 45 178 0.0 0.0 0.00 0.00 0.00 87 1004.6
20260505041557 47 277 0.0 0.0 0.00 0.00 0.00 82 1004.3
20260505040054 48 277 0.0 0.0 0.00 0.00 0.00 81 1004.2
20260505034549 48 277 0.9 0.0 0.00 0.00 0.00 81 1004.1
20260505033046 48 277 0.0 0.0 0.00 0.00 0.00 80 1004.1
20260505031553 49 277 0.0 0.0 0.00 0.00 0.00 79 1003.8
20260505030042 49 277 0.0 0.0 0.00 0.00 0.00 78 1003.7
20260505024554 49 277 0.0 0.0 0.00 0.00 0.00 78 1003.7
20260505023041 50 277 0.0 0.0 0.00 0.00 0.00 76 1003.6
20260505021540 51 277 0.0 0.0 0.00 0.00 0.00 75 1003.8
20260505020040 52 277 0.0 0.0 0.00 0.00 0.00 73 1003.7
20260505014559 52 277 0.0 0.0 0.00 0.00 0.00 71 1003.6
20260505013039 53 277 0.0 0.0 0.00 0.00 0.00 70 1003.4
20260505011543 54 277 0.0 0.0 0.00 0.00 0.00 67 1003.3
20260505010038 55 277 0.0 0.0 0.00 0.00 0.00 65 1003.3
20260505004541 56 277 0.0 0.0 0.00 0.00 0.00 63 1003.1
20260505003038 57 277 0.0 0.0 0.00 0.00 0.00 60 1002.8
20260505001537 58 277 0.0 0.0 0.00 0.00 0.00 58 1002.3
20260505000048 59 277 0.9 0.0 0.00 0.00 0.00 56 1002.3
20260504234545 61 304 0.0 0.0 0.00 0.00 0.00 51 1002.2
20260504233054 62 304 0.9 0.0 0.00 0.00 0.00 47 1001.7
20260504231537 63 325 0.9 0.0 0.00 0.00 0.00 45 1001.6
20260504230037 64 39 0.9 0.0 0.00 0.00 0.00 44 1001.6
20260504224539 65 296 0.9 0.0 0.00 0.00 0.00 42 1001.5
20260504223053 65 45 0.9 0.0 0.00 0.00 0.00 43 1001.3
20260504221536 65 300 3.5 0.0 0.00 0.00 0.00 41 1001.2
20260504220033 65 322 2.6 0.0 0.00 0.00 0.00 42 1001.2
20260504214532 65 302 1.7 0.0 0.00 0.00 0.00 43 1001.2
20260504213045 65 19 2.6 0.0 0.00 0.00 0.00 42 1001.2
20260504211534 64 15 1.7 0.0 0.00 0.00 0.00 44 1001.4
20260504210030 65 306 3.5 0.0 0.00 0.00 0.00 41 1001.3
20260504204540 65 310 0.9 0.0 0.00 0.00 0.00 43 1001.2
20260504203027 65 40 1.7 0.0 0.00 0.00 0.00 44 1001.3
20260504201525 64 315 1.7 0.0 0.00 0.00 0.00 45 1001.3
20260504200025 64 19 2.6 0.0 0.00 0.00 0.00 46 1001.5
20260504194523 64 355 1.7 0.0 0.00 0.00 0.00 48 1001.7
20260504193020 63 350 1.7 0.0 0.00 0.00 0.00 48 1001.8
20260504191514 61 107 1.7 0.0 0.00 0.00 0.00 53 1001.9
20260504190015 61 32 1.7 0.0 0.00 0.00 0.00 53 1002.3
20260504184513 61 283 3.5 0.0 0.00 0.00 0.00 52 1002.5
20260504183012 60 338 4.3 0.0 0.00 0.00 0.00 53 1002.6
20260504181512 59 296 5.2 0.0 0.00 0.00 0.00 54 1003.0
20260504180008 58 313 2.6 0.0 0.00 0.00 0.00 58 1003.2
20260504174506 56 350 2.6 0.0 0.00 0.00 0.00 65 1003.6